コワルスキー彗星

C/2016 E2 ( Kowalski )

English version
Home page
Updated on May 29, 2016

---------------------------------------------------------------------

・ プロフィール

発見日 2016年3月15日
発見光度 17.7等
発見者 R. A. Kowalski (Catalina Sky Survey)

・ 写真集

・ 軌道要素

T 2016 Feb. 6.68756 TT                                  MPCW
q   1.0754879            (2000.0)            P               Q
                   Peri.  321.98356     -0.73108457     -0.67750580
                   Node   186.66550     -0.31744926     +0.23316390
e   1.0            Incl.  136.00040     -0.60393817     +0.69758189
From 89 observations 2016 Mar. 15-18.

・ 光度変化

        m1 = 19.0 + 5 logΔ + 10.0 log r

---------------------------------------------------------------------

軌道要素はM.P.E.C. 2016-F43に掲載されたものです。
光度グラフはComet for Windowsで作成したものです。

---------------------------------------------------------------------

Copyright(C) Seiichi Yoshida (comet@aerith.net). All rights reserved.